Temperature
17 17 17 17 17 17 17 17 17 17 17 17 17 17 17 17 18 18 19 19 18 18 18 18 18 18 18 18 18 18 18 18 18 18 18 18 18 18 17 17 17 17 17
17 17 17 17 17 17 17 17 17 17 16 16 16 16 17 17 17 17 18 18 18 18 18 18 18 18 18 18 18 18 18 18 18 18 18 18 18 18 18 17 17 17 17
17 17 17 17 17 17 17 16 16 16 16 16 16 16 16 16 17 17 17 17 18 18 18 18 18 18 18 18 18 18 18 18 18 18 18 17 17 17 18 18 17 17 17
16 16 16 16 16 16 16 16 16 16 16 16 16 16 16 16 16 17 17 17 17 17 17 17 17 18 17 18 18 18 18 18 18 18 17 17 17 17 17 17 17 17 17
16 16 16 16 15 15 15 16 15 15 16 16 16 16 16 16 16 16 16 17 17 17 17 17 17 17 17 17 18 18 18 18 18 18 17 17 17 17 17 17 17 17 17
15 15 15 15 15 15 15 15 15 15 15 15 15 15 16 16 16 16 16 16 16 16 17 17 17 17 17 17 17 17 17 17 18 17 17 17 17 17 17 17 17 17 17
14 14 14 14 14 14 14 14 14 14 15 15 15 15 15 15 15 16 16 16 16 17 17 17 17 17 17 17 17 17 17 17 17 17 18 18 17 17 17 17 17 17 17
13 13 13 13 14 14 14 14 14 14 14 14 14 14 15 15 16 16 16 16 17 17 16 17 17 17 17 17 17 17 17 17 17 17 17 18 17 17 17 17 17 16 16
13 13 13 13 13 13 13 14 14 14 14 14 14 14 14 15 15 16 16 17 17 17 17 17 17 17 17 17 17 17 17 17 17 17 17 17 17 17 17 17 17 17 16
13 13 13 13 13 13 13 13 13 13 13 14 14 14 14 14 15 16 16 17 17 16 16 16 17 17 17 17 17 17 17 17 17 17 17 17 17 17 17 17 17 17 17
12 12 12 12 12 12 12 13 13 13 13 13 13 14 14 14 14 15 15 16 16 17 17 17 17 17 17 17 17 17 17 17 17 17 17 17 17 17 17 17 17 17 17
11 12 12 12 12 12 12 12 12 12 13 13 13 13 13 14 14 14 15 15 16 17 17 17 17 17 17 17 17 17 17 17 17 17 17 17 17 17 17 17 17 16 16
10 11 11 11 11 11 11 11 11 12 12 12 13 13 13 13 13 14 14 15 16 16 17 17 17 17 17 17 17 17 17 17 17 17 17 17 17 17 16 16 17 16 16
9 10 10 10 10 10 10 10 11 11 11 12 12 12 13 13 13 13 14 14 15 16 16 17 17 17 17 17 17 17 17 17 17 17 16 16 16 16 16 16 16 16 16
9 9 9 9 9 10 10 10 10 10 11 11 11 11 12 12 13 13 13 13 14 15 16 17 17 17 17 17 17 17 17 17 17 16 16 16 16 16 16 16 16 16 16
9 9 9 9 9 9 9 9 9 10 10 10 10 11 11 12 12 12 13 13 13 14 15 16 17 17 17 17 17 17 17 17 16 16 16 16 16 16 16 16 16 16 16
8 8 8 8 8 9 9 9 9 9 9 10 10 10 10 11 11 12 12 12 13 13 14 15 16 16 16 16 16 16 16 16 16 16 16 16 16 16 16 16 16 17 16
8 8 8 8 8 8 8 8 8 9 9 9 9 9 10 10 11 11 11 12 12 13 13 14 15 16 16 16 16 16 16 16 16 16 16 16 16 16 16 16 17 17 16
8 8 8 8 8 8 8 8 8 8 8 8 9 9 9 10 10 10 11 11 11 12 12 13 14 15 15 16 15 15 15 15 15 16 16 16 16 16 16 16 16 16 16
8 8 7 7 7 7 7 7 8 8 8 8 8 8 9 9 9 10 10 10 11 11 12 12 13 14 14 15 15 15 15 14 15 15 15 16 16 16 16 16 16 16 16
8 7 7 7 7 7 7 7 7 7 7 7 8 8 8 8 9 9 10 10 10 10 11 11 12 13 13 14 14 15 14 14 14 14 14 15 15 15 15 16 16 16 16
8 8 8 8 7 7 7 7 7 6 7 7 7 7 8 8 8 9 9 10 10 10 10 11 11 12 13 13 14 14 14 14 13 13 13 13 13 14 14 15 15 15 15
8 8 8 8 8 8 7 7 7 6 6 7 7 7 7 7 8 8 9 9 9 10 10 10 11 11 12 13 14 14 14 14 14 13 12 12 12 12 12 13 13 14 14
8 8 8 8 7 8 7 7 7 6 6 6 6 7 7 7 7 8 8 9 9 10 10 10 10 11 11 12 13 14 14 13 13 12 12 12 11 11 11 12 12 12 13
8 8 8 8 7 7 7 7 7 6 6 6 6 6 6 7 7 7 8 8 9 9 10 10 10 10 10 11 12 12 12 12 12 11 11 12 11 11 11 11 11 12 12
8 8 8 8 7 7 7 7 7 6 6 6 6 6 6 6 7 7 7 8 8 9 9 9 9 10 10 10 11 12 12 12 12 11 11 11 11 11 11 11 11 11 11
Wind_Speed
3 3 3 4 5 6 6 5 6 8 9 11 13 12 11 15 16 16 16 19 21 27 29 29 28 27 27 26 26 25 25 24 23 23 22 21 20 19 19 19 18 18 17
1 2 3 3 3 5 5 5 6 7 8 8 11 11 12 14 16 17 17 18 22 25 29 30 29 28 27 27 27 26 26 25 25 25 24 23 22 21 21 20 20 19 19
1 1 2 3 3 5 5 4 5 5 7 9 11 13 11 12 12 14 17 16 18 23 28 30 30 29 29 28 28 27 26 26 26 26 26 25 25 24 23 22 22 21 21
1 1 2 3 4 4 3 4 4 5 6 7 8 10 10 10 11 12 14 16 17 18 23 29 30 29 29 29 28 27 27 27 27 27 27 27 26 25 25 24 24 23 22
2 1 2 3 4 3 3 4 4 4 5 6 7 8 8 9 10 11 10 13 17 18 18 23 29 30 30 29 28 27 27 27 27 28 28 27 27 27 27 26 26 25 24
3 2 2 3 3 3 4 4 5 5 5 5 7 7 6 7 8 10 11 10 13 18 20 20 21 26 30 29 28 28 28 28 28 29 28 28 28 28 27 27 27 26 26
5 2 2 3 3 3 4 5 4 5 4 3 3 3 4 7 9 9 9 9 11 14 17 19 19 19 20 27 29 29 29 29 29 29 29 29 29 28 28 27 27 27 27
8 5 3 4 3 2 4 4 3 3 3 2 2 2 2 3 6 10 9 10 11 9 12 16 17 18 18 16 21 28 29 29 29 29 29 29 29 29 28 28 28 28 28
9 7 5 4 3 2 2 3 3 2 3 3 2 2 2 3 2 3 8 10 9 9 10 9 13 17 19 18 18 23 28 29 29 29 29 29 29 29 28 28 28 28 28
8 8 6 4 3 2 2 3 2 1 2 3 3 3 3 3 2 3 3 6 9 10 10 11 12 12 17 17 19 20 25 28 29 29 28 28 28 28 28 28 28 28 28
7 7 6 4 3 2 3 3 3 2 2 2 2 2 3 3 3 3 4 3 3 6 8 9 9 9 13 16 17 20 23 25 26 27 27 27 27 27 28 28 28 28 27
5 7 7 5 4 4 4 4 4 4 3 3 3 2 2 2 2 2 3 3 4 4 5 7 8 9 9 13 18 20 22 23 24 25 25 26 26 26 26 27 27 27 27
4 6 5 5 5 5 6 5 5 5 4 4 4 3 3 3 2 2 3 3 3 3 2 4 7 7 8 11 14 20 21 22 23 23 24 24 24 25 25 25 26 26 26
5 5 5 5 6 6 7 6 5 6 5 5 6 5 3 4 3 2 2 2 2 2 2 4 3 6 6 8 13 18 15 20 21 21 21 22 22 22 23 24 24 24 25
6 6 6 6 6 6 6 6 5 6 6 6 7 6 5 4 3 3 2 2 2 2 3 4 2 3 4 5 11 12 11 15 17 18 18 18 19 20 20 21 22 23 23
6 7 7 7 7 7 7 6 6 6 6 7 6 7 6 5 4 4 3 2 3 3 4 4 3 2 4 5 8 9 9 12 13 14 15 15 16 17 18 19 20 21 22
7 7 8 8 8 8 8 7 7 7 7 7 7 7 8 7 5 5 4 3 3 3 5 4 2 1 3 7 6 6 8 8 7 9 10 11 13 14 15 16 18 19 20
8 8 8 8 9 9 8 8 9 9 8 8 8 8 9 7 7 6 5 5 4 4 4 4 2 2 3 7 8 8 6 6 6 7 7 8 9 11 13 14 15 16 17
9 8 8 9 9 9 9 9 10 10 10 10 9 9 9 8 8 6 6 6 5 5 4 4 3 2 2 5 7 7 8 6 6 8 9 8 7 7 9 10 12 13 14
8 9 9 9 9 10 10 10 10 10 11 11 10 9 9 9 9 9 7 7 6 5 5 4 3 3 3 4 7 8 6 4 4 5 8 9 10 10 8 9 10 12 12
9 9 9 9 9 9 10 10 10 11 10 10 10 9 10 12 14 10 8 8 7 6 5 5 5 3 4 7 7 6 8 7 4 3 5 4 6 6 7 9 10 12 14
9 9 9 9 10 10 13 15 13 10 9 10 10 9 10 12 14 15 15 14 12 9 8 6 6 6 6 6 6 9 9 8 5 4 4 4 4 6 4 6 10 14 15
9 9 9 10 11 13 17 18 19 12 11 11 11 10 12 12 11 9 11 14 14 16 14 9 8 7 7 7 9 11 10 8 5 7 5 3 3 4 4 8 11 14 16
9 10 10 11 11 13 16 17 18 13 11 11 11 11 11 11 11 9 8 8 8 10 12 9 8 7 7 7 10 10 10 8 7 5 4 4 3 3 4 7 9 12 15
10 10 10 10 11 13 15 16 15 8 9 11 12 12 12 12 14 14 9 8 7 7 10 12 10 9 9 10 10 9 11 11 8 4 2 4 4 3 3 4 7 10 13
10 10 10 10 10 11 14 15 13 6 8 9 9 10 14 14 14 15 10 9 9 8 7 7 8 8 8 10 13 12 13 13 9 5 4 5 5 4 4 2 3 6 9
Wind_Direction
243 257 269 267 263 256 246 237 232 231 233 233 233 232 232 232 230 229 232 233 225 213 208 204 201 200 200 200 200 201 201 200 199 196 195 195 194 192 190 189 188 187 186
227 252 276 279 275 267 256 248 240 235 237 235 235 233 232 235 234 231 229 232 228 218 211 207 205 205 205 205 204 205 205 205 203 200 199 199 198 197 196 195 194 192 192
270 270 284 290 288 287 276 264 252 240 238 238 236 232 229 230 233 233 231 229 228 223 216 211 208 208 209 210 210 209 208 208 206 203 202 202 201 201 200 200 199 198 197
8 349 308 293 294 294 279 268 256 252 248 244 238 233 227 222 227 232 234 234 231 227 222 217 212 211 212 214 214 213 212 210 209 207 206 205 204 205 204 203 203 202 202
19 6 297 287 297 295 285 280 270 255 260 256 244 236 229 223 224 232 231 234 235 228 222 220 217 216 217 218 219 218 215 212 211 210 208 207 207 207 207 207 206 206 205
346 351 302 302 305 306 296 283 277 268 257 258 259 253 235 227 225 226 229 230 232 230 224 223 223 224 223 221 222 223 220 216 213 212 211 210 209 209 209 209 209 209 208
331 317 303 306 312 303 294 287 280 279 275 264 269 275 261 241 235 233 227 226 228 228 226 221 220 221 225 226 225 224 223 220 217 215 213 212 211 211 210 210 211 211 211
326 319 292 278 282 293 314 317 299 285 286 254 224 255 279 267 241 231 223 226 227 224 226 224 220 219 221 220 223 224 224 223 221 218 214 212 212 212 211 211 212 212 213
321 314 299 276 263 252 277 300 312 297 285 283 241 222 234 246 282 255 227 227 224 220 225 224 219 219 218 219 221 223 223 223 223 221 217 214 213 212 212 212 213 213 213
323 321 307 291 272 255 264 281 298 290 294 295 289 257 243 234 241 291 284 237 225 223 222 224 224 217 216 216 217 217 218 219 221 221 219 215 213 212 212 214 215 215 214
330 335 326 319 310 289 279 290 307 302 282 281 281 283 276 259 227 236 281 295 252 228 222 219 220 217 212 211 213 215 215 216 218 218 217 215 212 212 214 215 217 217 216
322 332 336 332 320 310 298 289 282 289 284 283 278 264 261 279 263 238 252 276 269 246 224 218 219 215 209 207 213 214 212 214 214 214 214 213 212 213 214 216 218 219 218
307 312 329 330 322 312 303 296 286 282 278 280 274 262 250 253 263 253 252 266 278 279 249 227 217 211 207 199 208 211 211 211 210 211 211 210 210 211 214 216 218 220 219
276 282 297 308 308 307 307 303 290 279 277 272 276 271 259 256 253 253 257 272 295 302 281 254 228 208 198 189 198 198 204 205 206 207 207 207 208 210 212 215 217 218 218
279 288 295 297 297 298 297 300 291 286 283 272 270 270 264 258 246 241 239 234 238 262 262 259 252 216 187 174 180 180 181 194 198 200 202 204 207 209 212 214 216 217 217
278 286 288 288 289 290 290 290 286 282 281 275 269 268 267 260 253 241 228 227 227 231 251 247 241 228 178 164 158 153 160 166 175 186 193 200 205 209 213 215 216 217 217
271 271 272 276 280 282 283 282 279 280 276 278 278 271 264 260 255 249 232 221 224 222 251 266 260 229 152 147 129 119 121 123 135 163 181 194 203 208 212 214 215 215 214
265 262 262 264 269 274 272 272 276 280 271 269 271 269 267 266 254 245 236 229 222 219 232 258 261 224 164 155 140 128 115 111 109 125 149 170 188 201 206 209 209 209 209
265 264 260 257 260 263 264 263 263 266 265 260 258 257 259 258 255 245 236 232 225 229 223 237 250 243 159 146 132 116 110 107 104 107 110 120 142 168 184 190 192 194 194
266 264 259 255 255 255 256 259 259 260 262 261 256 251 250 247 246 240 236 229 221 220 222 231 233 236 180 155 142 140 133 119 108 97 92 93 100 106 127 150 163 167 168
276 267 265 261 258 258 260 255 252 259 258 260 259 254 251 252 248 240 232 220 211 210 213 223 222 215 192 170 163 154 147 134 103 110 104 82 82 79 80 103 126 140 146
277 274 268 264 264 271 268 262 258 254 251 252 255 254 257 263 258 249 240 225 209 204 205 212 217 213 206 181 164 159 152 150 147 148 114 81 71 77 57 74 114 127 132
280 278 272 267 266 265 263 263 262 257 247 246 245 246 258 259 252 241 239 233 223 216 204 198 211 213 206 188 171 171 170 159 143 150 122 94 66 72 50 75 110 122 126
280 278 277 272 271 274 269 263 262 258 247 243 241 238 239 246 249 236 232 231 224 218 211 205 206 213 212 197 183 175 162 131 107 113 106 112 95 74 55 59 89 116 125
285 281 277 275 275 279 276 271 266 256 246 244 242 239 234 236 237 227 221 221 222 226 219 207 200 200 198 193 176 156 155 154 149 144 110 117 124 98 67 51 66 98 120
284 285 283 279 276 278 280 279 272 251 247 249 247 241 237 233 229 217 210 209 214 216 201 197 197 198 200 197 186 179 172 169 156 152 157 127 136 132 106 66 62 86 104
Height
1529 1528 1527 1527 1526 1525 1525 1525 1525 1525 1526 1527 1528 1530 1532 1534 1536 1538 1539 1541 1543 1544 1546 1548 1551 1553 1556 1558 1560 1563 1565 1567 1569 1571 1574 1576 1578 1580 1582 1584 1586 1588 1589
1525 1524 1523 1522 1522 1521 1520 1519 1519 1519 1519 1520 1521 1522 1524 1526 1528 1531 1533 1535 1537 1539 1540 1543 1545 1548 1551 1553 1556 1558 1561 1563 1566 1568 1571 1573 1575 1578 1580 1582 1584 1586 1588
1522 1521 1519 1518 1517 1515 1514 1513 1513 1513 1512 1513 1513 1514 1515 1517 1520 1523 1526 1528 1531 1533 1535 1537 1540 1542 1545 1548 1551 1553 1556 1559 1562 1564 1567 1569 1572 1575 1577 1579 1582 1584 1586
1519 1517 1516 1514 1512 1511 1510 1508 1507 1506 1506 1506 1505 1506 1507 1509 1511 1514 1517 1520 1523 1526 1528 1531 1534 1537 1539 1542 1545 1548 1551 1554 1557 1560 1563 1565 1568 1571 1574 1576 1579 1581 1583
1517 1515 1513 1511 1509 1507 1506 1504 1503 1502 1500 1499 1498 1498 1499 1500 1503 1506 1509 1512 1515 1518 1521 1524 1527 1530 1533 1536 1539 1542 1545 1548 1552 1555 1558 1561 1564 1567 1570 1572 1575 1578 1580
1514 1512 1510 1508 1506 1504 1502 1500 1499 1498 1496 1494 1493 1492 1492 1493 1496 1498 1501 1504 1507 1510 1514 1517 1520 1523 1526 1529 1532 1535 1539 1542 1546 1549 1552 1556 1559 1562 1566 1568 1571 1574 1577
1510 1509 1507 1505 1503 1501 1499 1497 1495 1494 1492 1491 1489 1488 1487 1488 1489 1491 1494 1497 1500 1503 1506 1508 1511 1515 1518 1521 1525 1528 1532 1536 1539 1543 1547 1550 1554 1558 1561 1564 1567 1570 1573
1507 1505 1504 1502 1500 1499 1497 1494 1492 1491 1489 1489 1487 1486 1485 1485 1484 1486 1488 1490 1492 1496 1498 1500 1503 1507 1510 1514 1517 1521 1525 1528 1532 1537 1540 1544 1548 1552 1556 1559 1562 1565 1568
1503 1501 1500 1498 1497 1496 1494 1492 1490 1489 1487 1486 1486 1486 1484 1482 1481 1482 1482 1484 1486 1489 1491 1494 1496 1499 1502 1506 1510 1514 1518 1521 1526 1530 1534 1538 1542 1546 1550 1554 1557 1561 1564
1499 1497 1495 1494 1493 1492 1491 1490 1488 1487 1485 1484 1483 1483 1483 1482 1481 1479 1479 1480 1481 1483 1485 1487 1490 1492 1495 1499 1502 1506 1511 1515 1519 1523 1528 1532 1536 1540 1544 1548 1552 1555 1559
1495 1493 1491 1490 1489 1489 1488 1487 1485 1484 1483 1481 1480 1480 1480 1480 1479 1479 1477 1477 1477 1478 1480 1481 1484 1487 1489 1493 1496 1501 1505 1509 1513 1517 1521 1525 1530 1534 1538 1542 1546 1550 1553
1491 1490 1488 1486 1485 1484 1483 1483 1482 1481 1480 1479 1478 1477 1477 1477 1476 1476 1475 1475 1474 1475 1476 1477 1479 1482 1484 1488 1491 1496 1500 1504 1508 1512 1516 1520 1524 1528 1532 1536 1540 1543 1547
1487 1485 1483 1482 1481 1480 1479 1478 1477 1476 1476 1475 1474 1474 1473 1473 1474 1474 1473 1472 1472 1472 1473 1474 1476 1478 1480 1483 1487 1492 1496 1500 1503 1507 1511 1515 1518 1522 1526 1530 1534 1538 1541
1483 1481 1479 1477 1476 1475 1474 1473 1472 1471 1471 1470 1470 1470 1469 1469 1470 1470 1471 1471 1470 1470 1470 1471 1473 1475 1477 1480 1483 1488 1492 1496 1499 1503 1506 1510 1513 1517 1521 1524 1528 1532 1536
1478 1476 1475 1473 1471 1470 1468 1467 1466 1466 1465 1465 1465 1465 1464 1465 1465 1466 1467 1468 1469 1468 1468 1469 1470 1472 1474 1477 1481 1484 1488 1491 1495 1498 1501 1505 1508 1512 1515 1519 1523 1526 1530
1474 1472 1470 1468 1466 1464 1463 1462 1460 1460 1459 1459 1459 1459 1459 1460 1461 1461 1462 1463 1465 1466 1465 1466 1468 1469 1472 1475 1477 1481 1484 1487 1491 1494 1497 1500 1503 1507 1510 1514 1518 1521 1525
1470 1468 1465 1463 1461 1459 1458 1456 1455 1454 1453 1452 1453 1453 1453 1454 1455 1456 1457 1458 1459 1461 1462 1462 1464 1466 1468 1471 1474 1477 1480 1483 1486 1489 1492 1495 1498 1502 1505 1509 1513 1516 1520
1465 1463 1460 1458 1456 1454 1452 1451 1449 1448 1447 1446 1446 1446 1447 1448 1449 1450 1452 1453 1454 1456 1457 1458 1460 1463 1465 1467 1471 1474 1476 1479 1482 1484 1487 1490 1493 1497 1500 1504 1508 1512 1515
1459 1457 1455 1452 1450 1448 1447 1445 1443 1442 1440 1440 1439 1440 1440 1442 1442 1444 1446 1447 1449 1450 1452 1454 1455 1458 1460 1463 1466 1470 1473 1475 1478 1480 1483 1486 1489 1492 1496 1500 1504 1507 1511
1453 1450 1448 1446 1444 1442 1440 1438 1436 1435 1434 1433 1432 1432 1433 1434 1436 1438 1440 1441 1443 1445 1446 1448 1450 1453 1456 1459 1462 1465 1469 1472 1474 1477 1479 1482 1485 1489 1492 1496 1500 1504 1507
1447 1444 1442 1439 1437 1435 1432 1430 1429 1427 1426 1425 1425 1425 1426 1427 1428 1430 1433 1435 1438 1439 1440 1442 1445 1448 1451 1454 1457 1461 1465 1468 1471 1474 1476 1479 1482 1485 1489 1492 1496 1500 1504
1440 1438 1435 1432 1430 1427 1425 1423 1421 1420 1418 1418 1417 1417 1418 1419 1421 1423 1425 1428 1431 1433 1435 1437 1439 1442 1445 1449 1453 1456 1460 1463 1467 1471 1474 1477 1480 1483 1486 1490 1493 1497 1500
1434 1431 1428 1425 1422 1419 1417 1415 1413 1411 1410 1409 1408 1409 1409 1410 1413 1415 1417 1421 1423 1426 1429 1431 1433 1436 1440 1444 1448 1452 1455 1459 1463 1467 1472 1475 1479 1482 1485 1488 1491 1494 1498
1428 1425 1422 1418 1415 1411 1409 1406 1404 1402 1400 1400 1400 1400 1400 1401 1404 1407 1410 1413 1416 1419 1422 1425 1428 1431 1435 1439 1443 1447 1450 1456 1461 1466 1470 1473 1477 1480 1483 1487 1490 1493 1496
1422 1419 1416 1412 1408 1404 1401 1398 1396 1393 1392 1391 1391 1391 1392 1393 1395 1399 1402 1405 1408 1412 1416 1419 1422 1425 1429 1433 1437 1441 1446 1451 1456 1462 1466 1470 1473 1478 1482 1485 1489 1492 1495
1417 1414 1410 1406 1402 1398 1395 1392 1389 1386 1384 1383 1382 1383 1384 1385 1387 1391 1395 1398 1402 1406 1410 1413 1416 1419 1422 1426 1431 1435 1441 1446 1450 1456 1461 1466 1470 1475 1480 1484 1487 1490 1494